Redding, CA

4:24 AM PST on November 18, 2017 (GMT -0800)
Redding Municipal

Weather History for KRDD - March, 2014

Change the Weather History Date:

Tuesday, March 4, 2014

  Actual Average Record
Temperature  
Mean Temperature 56 °F -  
Max Temperature 62 °F 63 °F 73 °F (2012)
Min Temperature 50 °F 42 °F 30 °F (2010)
Degree Days  
Heating Degree Days 9    
Cooling Degree Days 0    
Growing Degree Days 6 (Base 50)    
Moisture  
Dew Point 50 °F    
Average Humidity 82    
Maximum Humidity 100    
Minimum Humidity 64    
Precipitation  
Precipitation 0.11 in 0.18 in 1.53 in (2001)
Month to date precipitation 2.07 0.77  
Year to date precipitation 10.57 12.24  
Since 1 July precipitation 14.07  
Sea Level Pressure  
Sea Level Pressure 30.11 in    
Wind  
Wind Speed 1 mph (NNE)    
Max Wind Speed 7 mph    
Max Gust Speed 9 mph    
Visibility 7 miles    
Events Rain    
T = Trace of Precipitation, MM = Missing Value Source: NWS Daily Summary

Daily Weather History Graph

Daily Weather History Graph

Search for Another Location

Airport or City:

Trip Planner

Search our weather history database for the weather conditions in past years. The results will help you decide how hot, cold, wet, or windy it might be!

Date:

Astronomy

Mar. 04, 2014 Rise Set
Actual Time 6:38 AM PST 6:04 PM PST
Civil Twilight 6:10 AM PST 6:31 PM PST
Nautical Twilight 5:39 AM PST 7:03 PM PST
Astronomical Twilight 5:07 AM PST 7:34 PM PST
Moon 8:26 AM PST (3/4) 10:18 PM PST (3/4)
Length of Visible Light 12h 20m
Length of Day
11h 25m
Waxing Crescent, 15% of the Moon is Illuminated
Mar 4
Waxing Crescent
Mar 8
First Quarter
Mar 16
Full
Mar 23
Last Quarter
Mar 30
New

Hourly Weather History & Observations

Time (PST) Temp. Dew Point Humidity Pressure Visibility Wind Dir Wind Speed Gust Speed Precip Events Conditions
12:32 AM 50.0 °F 50.0 °F 100% 30.10 in 2.5 mi Calm Calm - 0.01 in Rain Light Rain
12:53 AM 50.0 °F 50.0 °F 100% 30.09 in 2.5 mi Calm Calm - 0.02 in   Overcast
1:02 AM 50.0 °F 50.0 °F 100% 30.09 in 3.0 mi ENE 3.5 mph - N/A   Overcast
1:14 AM 50.0 °F 50.0 °F 100% 30.10 in 2.5 mi Calm Calm - 0.00 in Rain Light Rain
1:46 AM 50.0 °F 50.0 °F 100% 30.10 in 2.5 mi North 3.5 mph - 0.02 in Rain Light Rain
1:53 AM 50.0 °F 50.0 °F 100% 30.10 in 2.5 mi Calm Calm - 0.02 in Rain Light Rain
2:11 AM 50.0 °F 50.0 °F 100% 30.09 in 3.0 mi NNE 3.5 mph - 0.01 in Rain Light Rain
2:20 AM 50.0 °F 50.0 °F 100% 30.09 in 2.5 mi Calm Calm - 0.01 in Rain Light Rain
2:53 AM 50.0 °F 50.0 °F 100% 30.10 in 2.5 mi Calm Calm - 0.02 in Rain Light Rain
3:53 AM 50.0 °F 50.0 °F 100% 30.11 in 2.5 mi Calm Calm - 0.02 in   Overcast
4:15 AM 50.0 °F 50.0 °F 100% 30.12 in 1.8 mi Calm Calm - 0.02 in Rain Light Rain
4:22 AM 50.0 °F 50.0 °F 100% 30.12 in 2.0 mi Calm Calm - 0.02 in Rain Light Rain
4:36 AM 50.0 °F 50.0 °F 100% 30.11 in 3.0 mi ENE 3.5 mph - 0.03 in   Overcast
4:53 AM 50.0 °F 50.0 °F 100% 30.12 in 5.0 mi ENE 3.5 mph - 0.03 in   Overcast
5:10 AM 50.0 °F 50.0 °F 100% 30.11 in 9.0 mi ENE 3.5 mph - N/A   Overcast
5:40 AM 50.0 °F 50.0 °F 100% 30.11 in 10.0 mi ENE 3.5 mph - N/A   Overcast
5:53 AM 50.0 °F 50.0 °F 100% 30.12 in 6.0 mi NE 3.5 mph - N/A   Overcast
6:17 AM 50.0 °F 50.0 °F 100% 30.12 in 5.0 mi Calm Calm - N/A   Overcast
6:53 AM 50.0 °F 50.0 °F 100% 30.12 in 10.0 mi Calm Calm - N/A   Overcast
7:53 AM 51.1 °F 51.1 °F 100% 30.15 in 3.0 mi Calm Calm - N/A   Overcast
8:05 AM 51.1 °F 51.1 °F 100% 30.15 in 3.0 mi WNW 3.5 mph - N/A   Overcast
8:43 AM 52.0 °F 51.1 °F 97% 30.16 in 10.0 mi Calm Calm - N/A   Overcast
8:53 AM 53.1 °F 51.1 °F 93% 30.16 in 10.0 mi Calm Calm - N/A   Overcast
9:53 AM 54.0 °F 51.1 °F 90% 30.16 in 10.0 mi Calm Calm - N/A   Overcast
10:31 AM 55.0 °F 51.1 °F 86% 30.15 in 10.0 mi North 3.5 mph - N/A   Overcast
10:53 AM 55.9 °F 51.1 °F 84% 30.15 in 10.0 mi NNE 3.5 mph - N/A   Overcast
10:59 AM 55.9 °F 50.0 °F 80% 30.16 in 10.0 mi Calm Calm - N/A   Overcast
11:53 AM 59.0 °F 51.1 °F 75% 30.15 in 10.0 mi North 4.6 mph - N/A   Overcast
12:14 PM 57.9 °F 50.0 °F 75% 30.14 in 10.0 mi WSW 4.6 mph - N/A   Overcast
12:22 PM 57.9 °F 50.0 °F 75% 30.14 in 10.0 mi West 4.6 mph - N/A   Mostly Cloudy
12:53 PM 57.9 °F 48.9 °F 72% 30.12 in 10.0 mi Calm Calm - N/A   Overcast
1:04 PM 59.0 °F 48.9 °F 69% 30.11 in 10.0 mi Calm Calm - N/A   Overcast
1:27 PM 57.9 °F 48.9 °F 72% 30.10 in 10.0 mi Calm Calm - N/A   Overcast
1:53 PM 60.1 °F 50.0 °F 69% 30.09 in 10.0 mi Calm Calm - N/A   Mostly Cloudy
2:53 PM 60.1 °F 48.9 °F 67% 30.08 in 10.0 mi West 3.5 mph - N/A   Overcast
3:53 PM 61.0 °F 48.0 °F 62% 30.07 in 10.0 mi North 3.5 mph - N/A   Overcast
4:53 PM 60.1 °F 48.9 °F 67% 30.05 in 10.0 mi ENE 4.6 mph - N/A   Clear
5:53 PM 57.9 °F 50.0 °F 75% 30.04 in 10.0 mi ENE 4.6 mph - N/A   Clear
6:53 PM 54.0 °F 51.1 °F 90% 30.05 in 10.0 mi Calm Calm - N/A   Scattered Clouds
7:53 PM 54.0 °F 51.1 °F 90% 30.05 in 10.0 mi Calm Calm - N/A   Clear
8:53 PM 53.1 °F 51.1 °F 93% 30.06 in 10.0 mi Calm Calm - N/A   Clear
9:53 PM 51.1 °F 50.0 °F 96% 30.06 in 10.0 mi Calm Calm - N/A   Clear
10:53 PM 51.1 °F 50.0 °F 96% 30.06 in 10.0 mi WNW 4.6 mph - N/A   Overcast
11:53 PM 52.0 °F 51.1 °F 97% 30.07 in 10.0 mi Calm Calm - N/A   Overcast